Le nostre stazioni meteo in Italia

Pubblicità
Il mio iltempo24.it
Alghero, Italia (16520): Temperatura & dewpoint: 10.07.2018 20:00:00 - 16.07.2018 20:00:00 (CEST)Alghero, Italia (16520): velocità del vento: 10.07.2018 20:00:00 - 16.07.2018 20:00:00 (CEST)Alghero, Italia (16520): direzione del vento: 10.07.2018 20:00:00 - 16.07.2018 20:00:00 (CEST)Alghero, Italia (16520): reduced air pressure: 10.07.2018 20:00:00 - 16.07.2018 20:00:00 (CEST)Alghero, Italia (16520): visibility: 10.07.2018 20:00:00 - 16.07.2018 20:00:00 (CEST)Alghero, Italia (16520): precipitazioni: 10.07.2018 20:00:00 - 16.07.2018 20:00:00 (CEST)
Data & Tempo tt [°C] td [°C] ff [km/h] ff [kn] dd ppp [hPa] vv [km] rr [mm]
16.07.2018 20:00:00 27,1 19,0 18 10 OSO 1012,3 10 -
16.07.2018 19:00:00 28,0 23,0 22 12 OSO - 10 -
16.07.2018 18:00:00 - - - - - - - -
16.07.2018 17:00:00 - - - - - - - -
16.07.2018 16:00:00 31,0 20,0 48 26 OSO - 10 -
16.07.2018 15:00:00 35,0 15,0 28 15 S - 10 -
16.07.2018 14:00:00 32,6 15,6 29 16 S 1009,6 10 -
16.07.2018 13:00:00 31,0 17,0 24 13 SSO - 10 -
16.07.2018 12:00:00 31,0 16,0 13 7 SSO - 10 -
16.07.2018 11:00:00 29,2 18,3 4 2 - 1013,4 10 0,0
16.07.2018 10:00:00 26,0 21,0 13 7 ESE - 10 -
16.07.2018 09:00:00 25,0 21,0 8 4 NO - 10 -
16.07.2018 08:00:00 24,1 21,0 5 3 N 1012,9 10 -
16.07.2018 07:00:00 23,0 21,0 5 3 NE - 10 -
16.07.2018 06:00:00 22,0 20,0 4 2 - - 10 -
16.07.2018 05:00:00 22,8 21,3 8 4 N 1014,7 10 0,0
16.07.2018 04:00:00 24,0 22,0 8 4 SSE - 10 -
16.07.2018 03:00:00 23,0 22,0 9 5 NO - 10 -
16.07.2018 02:00:00 23,3 22,2 5 3 N 1013,6 6 -
16.07.2018 01:00:00 23,0 23,0 5 3 NNE - 6 -
16.07.2018 00:00:00 24,0 23,0 5 3 SSE - 10 -
15.07.2018 23:00:00 25,0 23,7 8 4 ONO 1015,4 10 0,0
15.07.2018 22:00:00 25,0 23,0 8 4 ONO - 10 -
15.07.2018 21:00:00 27,0 24,0 4 2 - - 10 -
15.07.2018 20:00:00 28,9 23,6 5 3 SO 1014,3 10 -
15.07.2018 19:00:00 30,0 23,0 8 4 S - 10 -
15.07.2018 18:00:00 30,0 23,0 8 4 SSO - 10 -
15.07.2018 17:00:00 29,7 23,7 13 7 ONO 1015,6 10 0,0
15.07.2018 16:00:00 30,0 23,0 16 9 ONO - 10 -
15.07.2018 15:00:00 31,0 24,0 15 8 O - 10 -
15.07.2018 14:00:00 31,6 23,4 13 7 ONO 1015,7 10 -
15.07.2018 13:00:00 31,0 23,0 9 5 O - 8 -
15.07.2018 12:00:00 31,0 24,0 11 6 S - 8 -
15.07.2018 11:00:00 30,4 22,9 4 2 - 1015,5 8 0,0
15.07.2018 10:00:00 29,0 23,0 5 3 ESE - 8 -
15.07.2018 09:00:00 27,0 24,0 4 2 - - 8 -
15.07.2018 08:00:00 25,9 23,4 4 2 - 1015,4 8 -
15.07.2018 07:00:00 23,0 22,0 2 1 - - 10 -
15.07.2018 06:00:00 23,0 22,0 2 1 - - 10 -
15.07.2018 05:00:00 23,8 22,1 2 1 N 1014,4 25 0,0
15.07.2018 04:00:00 25,0 22,0 9 5 SSO - 10 -
15.07.2018 03:00:00 25,0 22,0 5 3 SSO - 10 -
15.07.2018 02:00:00 25,3 22,6 8 4 SO 1014,5 10 -
15.07.2018 01:00:00 25,0 23,0 11 6 SO - 10 -
15.07.2018 00:00:00 26,0 24,0 13 7 SSO - 10 -
14.07.2018 23:00:00 26,1 24,4 18 10 S 1014,1 9 0,0
14.07.2018 22:00:00 26,0 24,0 16 9 S - 10 -
14.07.2018 21:00:00 27,0 24,0 13 7 S - 10 -
14.07.2018 20:00:00 26,7 23,5 26 14 SSO 1013,7 10 -
14.07.2018 19:00:00 28,0 24,0 21 11 S - 10 -
14.07.2018 18:00:00 28,0 24,0 21 11 SSO - 10 -
14.07.2018 17:00:00 28,8 23,9 24 13 SSO 1014,4 10 0,0
14.07.2018 16:00:00 30,0 24,0 29 16 SSO - 10 -
14.07.2018 15:00:00 31,0 24,0 34 18 SSO - 10 -
14.07.2018 14:00:00 30,4 22,8 29 16 SSO 1014,1 10 -
14.07.2018 13:00:00 29,0 24,0 35 19 SSO - 10 -
14.07.2018 12:00:00 32,0 19,0 29 16 SSO - 10 -
14.07.2018 11:00:00 33,2 19,5 5 3 NE 1014,3 10 0,0
14.07.2018 10:00:00 30,0 22,0 18 10 NNE - 10 -
14.07.2018 09:00:00 27,0 22,0 21 11 NE - 10 -
14.07.2018 08:00:00 25,3 23,5 13 7 NNE 1014,4 10 -
14.07.2018 07:00:00 24,0 22,0 5 3 N - 10 -
14.07.2018 06:00:00 24,0 23,0 4 2 - - 10 -
14.07.2018 05:00:00 24,1 22,7 9 5 NNE 1015,2 10 0,0
14.07.2018 04:00:00 24,0 22,0 11 6 NE - 10 -
14.07.2018 03:00:00 25,0 22,0 13 7 NNE - 10 -
14.07.2018 02:00:00 25,2 20,3 9 5 NNE 1015,4 30 -
14.07.2018 01:00:00 25,0 21,0 4 2 - - 10 -
14.07.2018 00:00:00 25,0 22,0 9 5 N - 10 -
13.07.2018 23:00:00 24,4 20,8 8 4 NNE 1016,0 50 0,0
13.07.2018 22:00:00 26,0 20,0 15 8 NNE - 10 -
13.07.2018 21:00:00 28,0 19,0 13 7 NNE - 10 -
13.07.2018 20:00:00 29,1 18,5 18 10 NNE 1015,4 10 -
13.07.2018 19:00:00 31,0 18,0 26 14 NE - 10 -
13.07.2018 18:00:00 32,0 18,0 24 13 NNE - 10 -
13.07.2018 17:00:00 32,0 17,1 22 12 NNE 1015,6 10 0,0
13.07.2018 16:00:00 34,0 15,0 22 12 NNE - 10 -
13.07.2018 15:00:00 34,0 14,0 21 11 NNE - 10 -
13.07.2018 14:00:00 33,6 14,5 18 10 NNE 1016,3 10 -
13.07.2018 13:00:00 32,0 14,0 18 10 NNE - 10 -
13.07.2018 12:00:00 32,0 13,0 21 11 NNE - 10 -
13.07.2018 11:00:00 30,2 15,9 22 12 NNE 1016,8 10 0,0
13.07.2018 10:00:00 28,0 17,0 21 11 NE - 10 -
13.07.2018 09:00:00 26,0 19,0 13 7 NE - 10 -
13.07.2018 08:00:00 22,3 17,2 9 5 NE 1016,5 10 -
13.07.2018 07:00:00 19,0 15,0 8 4 NNE - 10 -
13.07.2018 06:00:00 18,0 15,0 5 3 NNE - 10 -
13.07.2018 05:00:00 17,9 15,2 4 2 - 1016,3 10 0,0
13.07.2018 04:00:00 19,0 16,0 5 3 N - 10 -
13.07.2018 03:00:00 19,0 17,0 2 1 - - 10 -
13.07.2018 02:00:00 20,4 19,0 2 1 - 1016,2 10 -
13.07.2018 01:00:00 21,0 19,0 4 2 E - 10 -
13.07.2018 00:00:00 22,0 18,0 5 3 NNE - 10 -
12.07.2018 23:00:00 23,0 17,9 5 3 NNE 1016,0 10 0,0
12.07.2018 22:00:00 25,0 18,0 8 4 NNE - 10 -
12.07.2018 21:00:00 27,0 15,0 13 7 NNE - 10 -
12.07.2018 20:00:00 28,9 14,0 15 8 NNE 1014,9 10 -
12.07.2018 19:00:00 31,0 13,0 13 7 NNE - 10 -
12.07.2018 18:00:00 32,0 14,0 13 7 NNE - 10 -
12.07.2018 17:00:00 32,9 15,3 11 6 NE 1014,8 10 0,0
12.07.2018 16:00:00 33,0 17,0 13 7 ONO - 10 -
12.07.2018 15:00:00 34,0 15,0 9 5 ESE - 10 -
12.07.2018 14:00:00 32,6 14,4 9 5 - 1015,1 10 -
12.07.2018 13:00:00 33,0 16,0 15 8 NNE - 10 -
12.07.2018 12:00:00 32,0 14,0 5 3 ENE - 10 -
12.07.2018 11:00:00 30,6 14,5 8 4 NE 1015,3 10 0,0
12.07.2018 10:00:00 28,0 15,0 4 2 - - 10 -
12.07.2018 09:00:00 25,0 18,0 5 3 ENE - 10 -
12.07.2018 08:00:00 21,9 16,4 2 1 - 1015,3 10 -
12.07.2018 07:00:00 18,0 16,0 4 2 NO - 10 -
12.07.2018 06:00:00 18,0 16,0 2 1 - - 10 -
12.07.2018 05:00:00 17,8 16,3 0 0 N 1015,2 10 0,0
12.07.2018 04:00:00 18,0 17,0 4 2 - - 10 -
12.07.2018 03:00:00 - - - - - - - -
12.07.2018 02:00:00 19,7 17,2 4 2 - 1015,5 10 -
12.07.2018 01:00:00 21,0 18,0 2 1 - - 10 -
12.07.2018 00:00:00 22,0 18,0 2 1 - - 10 -
11.07.2018 23:00:00 22,2 19,3 2 1 - 1015,0 10 0,0
11.07.2018 22:00:00 24,0 19,0 4 2 - - 10 -
11.07.2018 21:00:00 25,0 19,0 8 4 ONO - 10 -
11.07.2018 20:00:00 26,9 18,7 11 6 SSO 1014,0 10 -
11.07.2018 19:00:00 29,0 18,0 11 6 SO - 10 -
11.07.2018 18:00:00 29,0 20,0 11 6 ONO - 10 -
11.07.2018 17:00:00 29,0 20,0 13 7 O - 10 -
11.07.2018 16:00:00 30,0 20,0 18 10 SSO - 10 -
11.07.2018 15:00:00 29,0 20,0 22 12 SSO - 10 -
11.07.2018 14:00:00 29,8 19,5 22 12 SO 1014,5 10 -
11.07.2018 13:00:00 29,0 21,0 21 11 SSO - 10 -
11.07.2018 12:00:00 27,0 23,0 22 12 SSO - 10 -
11.07.2018 11:00:00 26,7 22,6 21 11 S 1014,5 10 0,0
11.07.2018 10:00:00 27,0 22,0 22 12 SSO - 10 -
11.07.2018 09:00:00 26,0 22,0 18 10 SSO - 10 -
11.07.2018 08:00:00 24,7 22,1 21 11 SSO 1014,0 10 -
11.07.2018 07:00:00 23,0 22,0 13 7 SSO - 10 -
11.07.2018 06:00:00 22,0 21,0 11 6 SO - 10 -
11.07.2018 05:00:00 22,7 21,5 11 6 SO 1013,7 10 0,0
11.07.2018 04:00:00 22,0 20,0 9 5 SSO - 10 -
11.07.2018 03:00:00 21,0 20,0 5 3 SSO - 10 -
11.07.2018 02:00:00 20,2 18,1 2 1 - 1014,7 10 -
11.07.2018 01:00:00 22,0 19,0 2 1 - - 10 -
11.07.2018 00:00:00 22,0 18,0 2 1 - - 10 -
10.07.2018 23:00:00 22,2 18,2 5 3 SO 1015,2 10 0,0
10.07.2018 22:00:00 24,0 18,0 5 3 O - 10 -
10.07.2018 21:00:00 25,0 18,0 5 3 O - 10 -
10.07.2018 20:00:00 26,5 18,6 8 4 O 1014,3 10 -

tt = Temperatura
td = dewpoint
ff = velocità del vento
dd = direzione del vento
ppp = reduced air pressure
vv = visibility
rr = precipitazioni

Stazioni seguenti

WeatherPro
AMSI
MeteoEarth